Theta_e
311 310 311 311 312 301 307 308 305 308 315 312 308 308 310 310 308 306 317 313 319 326 326 326 329 328 329 330 331 336 336 336 336 337 338 341 342 342 341 341 340 344 344 342 343 346 348 348 348 349 350 350 353 355 356 357 358 359 360 363 361 363 363
310 314 312 312 312 312 309 303 307 314 316 314 308 301 307 306 303 306 310 309 312 312 307 324 327 325 326 327 331 333 337 336 333 334 337 339 341 342 342 342 344 344 346 344 344 345 346 347 348 349 351 352 353 354 355 354 355 357 357 359 359 359 361
310 313 312 309 311 313 309 308 314 306 302 301 308 306 299 301 302 304 307 309 310 312 313 320 322 322 327 327 330 333 333 335 336 336 337 338 341 342 342 341 341 342 343 345 346 347 346 349 351 351 351 351 351 353 352 351 351 352 352 354 355 358 359
309 310 308 301 304 310 312 313 310 313 309 306 304 306 308 307 301 301 303 307 306 314 316 318 322 329 330 327 330 330 330 332 335 338 337 338 338 339 340 340 340 342 343 344 345 347 348 350 350 352 351 351 351 353 353 350 349 351 352 351 353 354 355
309 302 306 303 306 304 304 305 306 308 307 311 310 310 307 304 302 302 301 300 309 321 330 329 331 331 332 333 332 334 335 336 337 338 339 340 341 340 343 344 345 342 342 342 344 347 349 350 352 352 353 353 354 354 353 351 350 349 349 350 351 354 354
303 305 309 308 308 309 307 305 304 307 305 303 300 300 309 308 304 299 302 301 314 326 335 336 334 334 336 337 336 334 336 336 337 339 341 340 342 344 345 342 341 342 345 346 346 348 349 351 351 352 355 357 356 356 354 354 353 353 352 350 353 353 354
305 307 310 311 311 311 310 309 305 308 308 307 303 296 302 307 307 308 307 303 310 328 330 334 334 337 338 339 338 337 336 339 339 339 341 341 343 343 342 344 345 348 350 348 347 352 352 350 353 356 357 359 357 358 358 356 353 354 351 352 356 356 355
309 310 312 312 311 310 309 310 310 307 304 306 305 304 306 304 306 303 304 302 311 327 334 337 338 339 339 342 340 339 337 338 339 341 342 343 343 345 342 345 346 348 350 358 356 351 352 354 355 357 358 361 360 360 362 363 358 354 353 357 357 359 358
302 305 307 307 311 310 307 307 310 309 309 308 308 308 309 303 305 306 303 299 312 326 333 336 338 336 337 338 340 341 339 338 340 343 343 343 344 344 344 344 346 348 354 351 355 355 355 357 357 359 360 362 362 361 362 362 362 361 357 358 359 358 359
293 293 295 298 301 304 307 309 309 309 308 308 307 303 305 298 306 308 304 304 321 327 331 332 334 334 335 338 339 341 343 342 341 342 345 345 344 345 345 347 347 347 351 351 351 354 355 355 357 358 360 361 361 362 363 363 361 362 362 359 358 360 362
299 301 304 307 308 307 302 305 307 308 308 309 310 309 305 301 306 305 309 311 313 322 324 328 332 334 333 335 337 338 339 341 343 346 345 346 347 349 347 349 349 351 351 349 349 351 353 355 354 355 357 359 360 360 361 362 362 362 363 361 363 362 364
306 306 306 307 308 306 306 305 305 307 309 309 307 305 304 312 306 301 310 314 310 315 319 325 329 332 333 334 336 337 339 340 341 343 344 343 345 346 348 347 349 350 351 351 352 353 353 352 352 353 358 360 360 361 360 361 361 361 362 364 364 364 364
306 307 307 308 308 307 308 307 308 307 308 308 307 306 308 309 305 303 313 316 311 313 323 326 328 330 333 331 335 338 339 340 340 341 341 341 343 345 342 344 350 349 349 350 351 351 353 354 354 354 355 355 357 360 362 362 362 362 363 365 363 362 362
305 306 307 308 307 307 307 307 308 309 309 309 308 308 308 308 310 311 312 314 315 321 326 326 327 330 332 334 338 338 338 338 339 339 340 340 341 343 345 344 345 348 349 349 350 351 352 352 352 351 352 354 355 355 358 358 358 361 362 363 360 359 359
304 305 307 307 307 307 306 307 309 309 309 309 310 310 311 312 312 312 311 315 319 328 330 328 333 334 332 335 335 334 338 338 338 339 339 338 339 340 342 344 344 347 348 349 352 352 352 351 352 352 353 353 354 355 356 357 358 357 356 355 357 357 357
301 304 304 305 306 306 305 305 307 310 308 307 310 310 315 313 309 311 311 313 316 326 333 332 332 331 332 332 334 334 335 337 337 338 337 339 339 339 341 343 345 345 346 347 348 349 351 352 353 353 353 354 354 354 356 357 356 358 357 355 354 354 354
298 303 304 303 304 303 301 302 306 310 311 313 315 316 316 316 317 313 309 315 325 325 328 327 328 328 330 332 334 333 335 336 337 338 338 338 338 339 339 340 341 342 343 344 345 346 347 347 348 350 353 353 353 354 355 357 358 357 355 354 356 357 357
299 302 303 304 301 295 296 307 310 310 309 310 312 313 317 318 318 318 319 323 329 328 326 325 326 327 328 334 337 337 336 335 335 335 336 336 337 338 338 339 339 340 340 341 343 345 346 346 347 348 348 347 347 349 351 352 352 352 352 351 352 354 354
299 304 303 298 293 295 306 310 312 312 311 312 312 314 317 317 320 320 319 324 325 328 329 329 330 332 333 334 334 336 336 337 335 335 335 335 336 336 336 337 338 339 340 340 341 342 342 343 344 345 344 344 345 345 346 345 347 346 346 346 345 345 346
302 300 299 290 294 304 307 308 311 313 313 313 311 312 315 318 319 321 323 324 326 330 329 331 332 332 332 333 334 334 335 337 337 334 333 334 334 334 335 335 336 336 337 338 339 339 342 342 341 343 342 342 342 342 342 341 341 341 340 339 340 341 342
296 298 297 296 306 304 305 305 308 310 308 309 309 306 311 319 320 320 322 326 327 328 330 331 332 331 330 327 328 332 333 335 335 334 333 333 334 333 334 334 333 335 335 334 336 338 338 337 339 340 340 340 340 340 339 339 337 336 335 335 335 337 338
302 297 295 296 296 295 301 308 311 313 313 312 314 313 310 318 321 323 321 322 327 326 327 327 328 328 323 320 321 327 330 332 329 332 333 333 332 332 331 332 333 335 335 336 336 336 336 337 338 339 340 340 339 338 337 337 336 334 333 331 332 333 334
300 299 295 294 293 296 306 309 310 312 313 311 315 308 304 311 319 321 323 322 326 327 325 324 326 324 318 316 319 323 328 333 327 323 324 326 326 326 326 326 327 326 327 327 329 332 334 333 335 337 337 337 335 335 335 335 335 333 331 331 332 331 332
299 298 295 293 302 300 308 312 311 312 313 312 309 296 297 309 316 320 321 322 323 325 328 327 323 319 314 315 319 324 324 326 329 323 321 321 322 322 322 323 323 324 326 326 326 325 324 326 328 331 331 331 331 331 331 332 332 332 332 332 332 332 332
298 299 297 299 304 310 312 312 313 314 314 310 299 293 302 315 317 320 324 325 326 328 326 326 322 322 325 325 327 328 328 328 327 327 324 324 323 323 322 323 327 323 322 322 321 322 324 325 325 326 327 327 327 328 329 329 329 330 332 334 334 334 334
298 299 296 295 304 309 314 315 313 316 310 298 295 310 319 318 317 320 320 325 326 326 325 325 325 325 326 326 328 328 328 328 328 328 327 327 327 327 325 325 324 321 321 322 322 322 323 322 322 322 325 326 326 326 324 323 325 329 330 332 332 332 333
302 301 297 294 290 308 315 315 314 316 308 308 315 319 320 320 321 320 321 323 325 326 325 326 325 325 325 325 325 327 328 328 328 327 325 325 326 324 324 323 322 321 321 322 321 322 322 324 324 325 326 326 326 325 324 325 325 325 326 328 329 330 330
296 298 294 295 304 311 316 315 308 311 314 318 320 320 317 321 323 321 324 325 325 326 326 325 324 325 324 325 325 325 326 327 327 328 328 326 325 325 326 328 324 324 321 321 321 323 324 325 325 326 326 326 326 325 325 327 327 327 327 327 328 328 328
304 303 305 310 313 314 315 317 316 317 318 321 321 321 320 320 319 323 323 324 324 329 326 325 324 324 325 325 326 325 325 324 324 324 325 324 322 323 324 324 325 324 323 322 320 322 323 323 324 326 325 323 323 323 325 327 326 327 326 326 327 326 325
310 311 312 314 314 314 315 316 318 317 318 320 321 320 319 323 325 325 321 325 327 326 327 324 324 323 324 324 324 323 325 324 324 326 325 324 324 323 322 321 322 323 324 323 322 320 319 320 321 324 323 323 323 324 324 325 326 327 327 327 326 326 326
300 300 311 312 312 314 315 315 317 320 320 320 321 321 322 324 325 325 326 326 325 326 327 325 324 324 326 325 325 326 325 324 324 323 322 323 322 322 321 323 323 321 317 318 319 319 318 319 320 319 320 321 324 325 325 325 324 327 328 326 323 324 325
304 308 311 313 313 315 316 316 317 317 319 320 322 323 325 325 325 325 325 326 325 326 324 324 324 323 324 323 324 323 325 325 324 324 323 323 322 323 324 323 323 321 319 316 316 315 315 318 322 318 318 318 319 322 322 325 325 326 327 328 325 324 324
309 313 312 313 315 315 317 317 318 319 319 319 321 322 323 323 324 324 324 326 326 326 325 325 326 324 324 324 324 322 323 323 322 323 324 325 325 324 322 323 323 322 320 319 318 317 317 317 316 317 319 320 319 322 323 325 328 327 327 327 328 325 325
302 307 309 312 306 308 314 316 318 319 320 320 319 320 320 322 322 323 323 322 324 325 325 325 325 324 324 324 325 322 323 323 324 323 323 323 324 325 326 325 323 323 321 322 320 319 319 322 321 320 319 319 320 320 322 324 326 327 326 325 323 322 324
306 311 313 315 313 314 317 318 319 320 321 321 319 319 319 320 321 322 322 322 323 323 324 325 325 325 325 326 324 323 322 324 325 325 324 322 320 320 321 320 321 322 322 321 320 319 321 321 321 321 321 321 321 322 322 322 324 325 326 324 323 322 322
312 314 314 314 314 313 315 318 319 320 322 321 320 321 321 321 322 322 322 322 321 322 324 325 325 326 327 326 326 325 324 325 325 326 326 324 323 321 321 320 321 321 321 321 321 320 320 320 319 320 319 320 320 320 322 323 324 324 323 322 321 320 321
314 318 318 318 318 318 319 319 319 320 321 322 320 319 320 320 321 321 321 321 322 321 321 323 325 326 326 327 326 327 327 326 326 327 325 324 323 323 321 321 320 321 321 320 321 320 320 320 319 318 319 319 320 319 321 322 322 322 323 323 321 322 323
Wind_Speed
12 14 13 14 11 9 9 11 14 12 4 6 9 11 10 10 8 9 5 5 9 10 3 5 14 17 11 14 16 16 17 20 19 16 15 15 16 16 16 15 15 15 16 16 14 14 13 14 13 13 12 12 11 11 12 12 12 12 12 11 11 10 10
5 9 12 14 14 14 6 11 12 10 11 10 9 9 5 8 10 5 9 8 7 8 1 6 2 8 12 12 16 20 18 18 20 18 17 16 14 14 15 15 14 15 14 16 15 14 14 14 14 13 13 13 12 11 12 13 12 12 12 12 12 11 11
10 11 12 14 15 17 12 7 4 13 11 13 7 4 9 9 9 6 9 10 7 9 7 6 10 4 10 13 12 18 16 14 16 17 17 16 14 9 9 14 15 15 13 14 14 14 15 14 13 13 13 12 12 12 12 13 13 13 13 11 11 10 11
12 11 10 12 13 15 16 12 9 8 9 9 9 9 6 7 7 6 8 9 4 5 2 14 13 15 8 11 11 12 15 16 14 13 15 14 14 13 11 12 15 14 15 16 15 14 14 14 12 11 13 12 13 13 12 11 12 12 12 12 12 11 11
10 11 10 12 11 12 14 11 8 8 10 5 7 8 12 9 8 7 5 7 4 4 9 1 11 8 6 8 13 11 10 12 13 12 12 12 12 14 9 5 8 14 15 16 16 14 12 12 11 10 11 12 11 11 11 12 12 13 13 12 12 11 10
9 8 11 14 10 10 10 11 12 10 8 10 9 9 6 11 10 6 7 6 7 6 3 6 5 7 6 6 11 13 11 12 13 14 11 11 11 10 8 12 12 11 10 13 14 13 11 11 11 11 10 10 11 10 10 10 9 9 11 11 10 10 9
7 12 17 14 18 8 9 12 13 12 10 8 9 8 9 7 9 11 9 7 4 3 4 3 5 4 5 6 8 12 13 9 11 13 16 19 16 13 11 12 13 9 10 11 11 10 11 11 11 12 11 10 10 11 10 11 11 10 10 10 9 9 9
6 5 3 6 8 6 11 10 12 13 14 11 9 10 8 10 9 9 6 7 4 7 4 3 7 6 5 3 5 8 16 8 9 10 12 13 14 15 15 6 12 11 11 7 6 9 9 9 11 12 10 9 9 9 9 10 12 13 12 9 8 9 9
7 7 8 7 9 9 8 10 9 11 13 16 14 12 7 11 12 11 7 11 5 2 4 6 6 8 7 6 3 4 10 12 9 9 11 11 11 14 17 16 15 14 10 8 7 8 7 8 10 10 10 10 9 9 9 9 9 10 10 9 9 10 10
10 10 10 8 11 12 10 10 10 18 17 12 9 10 11 11 8 12 10 1 7 8 3 4 7 8 8 6 6 6 6 9 10 9 10 11 12 13 15 15 16 14 12 9 8 8 8 8 8 9 9 9 8 8 9 8 8 8 8 8 9 11 10
7 5 9 8 10 8 13 16 19 7 6 10 9 7 9 8 5 10 9 6 8 7 6 3 7 5 9 9 7 7 7 6 8 8 9 7 6 6 11 9 10 10 10 12 10 11 10 9 8 6 6 6 6 7 8 7 7 7 7 7 8 9 9
8 2 6 10 10 12 13 16 14 10 9 11 14 10 9 6 7 11 7 8 7 4 5 7 3 3 7 8 6 8 7 6 6 7 9 9 7 6 7 5 8 10 10 10 11 11 11 10 9 8 7 6 7 7 7 7 6 6 5 5 6 6 7
11 12 8 9 8 8 5 6 5 10 13 14 14 13 14 11 8 7 9 11 7 6 9 10 10 7 4 6 7 5 8 7 7 6 7 10 11 11 13 9 6 8 9 9 10 10 10 9 9 8 7 8 8 6 6 7 7 6 6 4 5 7 7
8 6 9 9 9 5 7 8 6 8 9 11 11 13 18 14 5 11 9 8 6 10 11 6 7 6 4 7 7 6 7 7 8 8 7 7 7 8 8 11 9 8 7 6 9 10 10 9 9 9 8 8 8 8 7 6 6 6 6 6 5 5 6
9 9 3 5 8 8 4 6 8 8 10 9 9 9 9 8 10 8 13 4 7 9 4 2 5 6 6 8 6 7 6 7 8 9 9 8 6 5 6 8 10 10 9 9 9 9 9 8 8 7 8 9 8 7 6 7 7 8 8 8 8 7 6
6 7 8 7 6 8 9 1 1 4 5 9 4 8 4 6 8 10 12 5 3 6 2 8 3 5 6 8 7 7 6 5 6 7 8 9 8 7 6 6 7 8 9 9 8 7 7 7 6 5 4 5 6 5 5 5 6 4 3 5 7 9 9
7 4 5 4 9 9 8 6 2 5 4 6 2 2 2 4 6 6 9 1 4 4 5 1 3 5 6 8 7 7 7 5 5 7 9 10 10 9 10 11 10 10 9 9 9 8 7 7 6 5 4 5 4 4 5 2 2 4 5 7 7 6 6
5 6 9 8 8 9 2 7 3 6 7 5 5 3 6 6 4 4 3 3 3 5 1 3 3 3 6 5 7 6 8 9 9 9 9 9 9 9 9 9 9 9 7 7 7 7 8 8 7 7 7 8 7 5 4 3 3 3 3 4 3 1 2
6 6 7 9 11 6 9 3 6 5 4 4 6 5 4 7 6 5 2 7 6 6 3 4 5 5 6 6 6 7 7 6 7 8 8 8 10 10 10 9 8 9 10 10 10 9 8 8 8 8 8 7 6 6 5 6 5 5 5 6 6 5 6
5 6 5 8 5 6 3 5 7 6 6 6 9 3 11 8 11 9 7 7 3 4 7 7 6 7 8 8 10 8 8 7 8 9 9 8 9 9 9 10 9 10 10 9 10 9 8 7 7 8 8 7 7 8 8 9 9 9 8 7 6 6 7
8 5 7 8 3 6 6 2 7 8 7 8 6 1 2 11 10 11 9 5 4 4 7 7 6 8 8 9 9 11 10 9 8 9 10 10 10 10 11 11 11 10 8 7 8 9 10 11 10 8 9 9 9 9 9 9 9 10 10 9 8 8 8
6 8 7 8 8 8 4 6 2 4 5 5 4 5 5 9 7 7 8 9 5 6 3 4 8 9 7 9 10 12 12 11 13 11 11 12 11 11 11 11 11 11 10 10 9 9 11 11 11 10 9 9 9 10 11 10 10 10 10 9 8 8 8
7 8 8 7 8 2 4 2 6 5 3 5 3 7 4 5 8 9 8 7 4 3 2 2 4 5 5 7 8 10 13 10 11 12 12 13 12 11 11 11 11 11 11 11 12 11 11 11 9 8 9 10 10 10 10 10 9 9 9 9 8 8 8
7 6 8 6 4 4 4 6 6 7 5 4 3 7 3 8 8 6 8 5 7 6 7 8 11 9 6 7 8 11 12 13 13 14 14 11 10 12 13 12 11 9 8 10 11 11 11 10 10 10 10 10 10 8 9 9 9 9 9 8 8 7 7
4 5 7 4 6 5 6 6 7 6 7 5 6 2 5 8 6 5 6 4 2 3 2 1 3 5 5 7 9 12 11 12 14 13 12 10 11 12 11 9 9 9 9 10 11 11 10 10 10 10 9 9 9 9 9 10 10 9 8 8 7 7 6
5 6 7 1 5 4 8 6 6 9 7 8 2 5 6 5 7 5 5 9 6 5 9 6 7 8 11 11 9 10 10 10 11 12 12 12 12 11 8 8 9 9 8 8 9 9 9 9 9 9 9 9 9 8 9 9 9 8 8 7 7 7 7
4 4 5 4 3 7 10 9 3 12 6 4 4 5 5 6 4 6 7 5 5 8 7 8 9 11 11 12 12 12 12 12 13 11 12 13 10 9 10 10 8 8 8 9 10 10 10 10 9 8 9 9 8 8 9 9 7 7 6 6 6 6 6
7 4 2 3 4 5 8 9 6 5 6 4 4 3 5 7 7 6 6 5 8 9 8 8 8 11 13 12 14 13 13 12 12 12 12 11 9 10 10 10 13 14 11 9 9 10 9 9 8 8 8 8 8 8 8 6 6 5 4 4 4 5 5
5 6 5 5 2 2 7 8 8 7 6 5 5 5 5 7 7 6 4 8 7 9 10 11 11 9 9 10 12 12 12 11 11 11 11 10 11 9 9 9 12 11 12 12 9 8 7 8 8 7 7 7 8 8 6 5 5 4 4 4 4 4 4
5 6 6 7 5 5 7 7 6 7 7 7 7 9 6 6 6 5 5 4 6 7 6 8 8 9 11 11 10 11 12 11 11 10 10 9 9 10 9 9 8 8 5 6 10 10 8 7 6 7 6 6 7 6 5 5 5 5 4 5 4 3 2
4 3 4 6 6 5 5 5 6 6 6 7 7 7 7 7 7 7 6 6 6 6 4 7 8 9 10 11 10 10 11 11 11 12 10 7 7 7 7 6 5 4 5 4 5 6 8 10 6 6 7 5 5 2 2 2 4 3 2 2 2 1 1
2 5 6 6 7 5 5 4 4 5 6 7 7 7 7 6 6 6 5 5 5 3 4 5 8 9 9 11 11 10 10 10 9 11 12 12 10 8 8 8 7 6 6 6 5 5 4 2 6 8 7 6 5 6 5 5 4 2 2 3 2 2 2
7 10 4 5 6 6 6 6 6 5 5 5 6 6 6 6 6 7 7 6 3 2 5 3 5 6 7 9 9 9 9 7 7 8 7 7 7 9 10 8 6 5 5 6 6 5 4 3 4 4 3 4 4 3 3 4 4 4 3 3 3 1 1
2 4 4 3 3 3 5 6 6 6 6 5 6 6 7 7 7 5 5 5 7 6 5 3 4 5 6 6 8 9 10 11 11 9 7 6 6 4 3 2 4 6 6 6 6 5 4 4 4 4 4 3 2 4 4 4 4 4 4 3 4 5 6
3 4 6 0 3 2 4 5 5 5 5 5 6 6 6 7 7 7 7 6 5 4 4 2 0 3 3 5 7 6 7 8 9 10 11 10 7 5 4 4 2 2 3 4 5 5 3 2 3 2 3 3 3 3 4 4 4 4 4 3 3 4 5
2 3 1 3 2 3 5 4 4 4 3 4 5 5 6 6 6 6 7 7 6 5 4 3 5 4 1 4 7 7 5 6 9 10 11 11 10 9 8 6 5 3 3 4 4 4 4 3 2 2 3 3 2 3 3 4 3 4 5 4 4 5 5
2 5 3 2 2 5 5 4 4 4 4 4 5 6 6 5 5 5 5 5 6 6 5 4 4 3 4 3 3 6 6 4 6 9 10 10 10 10 9 8 9 8 7 6 5 5 4 4 4 3 3 3 3 4 4 3 4 5 5 5 5 5 4
Wind_Direction
183 205 207 220 252 244 173 206 217 231 259 222 243 254 252 272 269 257 359 220 98 127 183 158 174 184 174 170 162 168 175 183 182 192 195 199 193 191 190 187 187 188 182 180 184 181 181 182 183 186 183 178 177 173 173 178 179 179 178 181 181 182 186
217 227 211 225 218 256 288 207 220 227 244 272 250 265 250 242 257 244 211 228 159 208 150 205 228 204 179 181 172 162 172 179 182 190 189 190 197 192 187 187 185 190 183 176 180 184 187 184 182 182 182 182 179 182 180 180 181 182 181 183 184 184 183
188 213 214 217 225 233 253 287 146 211 196 217 226 272 238 243 234 242 237 239 212 211 144 179 192 174 227 166 177 143 161 177 186 183 182 180 189 191 200 191 186 190 177 178 183 186 190 181 182 179 178 186 180 188 189 186 185 185 186 185 186 185 186
176 198 208 220 200 218 245 265 281 263 267 239 216 211 266 266 252 260 239 237 222 15 141 189 153 207 170 143 147 165 167 174 184 183 180 173 182 188 196 202 188 182 178 183 185 188 190 173 178 182 181 189 185 188 190 190 189 184 189 185 178 190 187
148 202 192 219 208 198 198 233 244 217 228 259 272 224 221 239 259 260 285 252 60 57 314 307 119 122 109 117 144 163 166 165 174 181 179 170 188 181 178 217 190 177 178 182 183 184 186 176 175 186 182 186 191 193 182 196 191 185 188 191 179 187 188
204 230 184 227 229 210 212 213 222 241 211 218 221 248 229 230 235 243 247 266 111 89 338 57 107 116 120 156 135 149 151 180 184 173 153 174 190 186 164 196 195 175 180 183 182 175 182 182 174 185 186 183 192 185 185 195 190 199 189 192 187 175 198
201 224 183 204 228 241 248 204 220 225 243 229 229 244 236 239 244 253 237 266 130 202 119 191 132 144 132 138 167 139 142 160 162 162 172 172 180 163 187 191 168 169 163 179 179 168 179 185 179 184 181 184 191 187 187 188 193 196 206 192 184 177 189
135 224 92 183 237 222 239 235 225 212 232 235 243 238 248 264 227 226 235 236 104 118 144 141 107 100 109 128 165 129 123 164 163 156 154 165 163 148 182 174 195 167 169 150 135 151 164 179 178 182 179 182 188 185 185 185 192 193 202 196 186 183 186
249 179 163 207 218 243 256 241 201 240 225 230 235 253 257 260 261 258 229 249 134 116 172 119 134 133 134 142 126 130 126 141 149 167 163 164 166 171 168 180 190 176 159 135 128 140 155 164 173 176 176 178 181 183 186 189 193 193 203 200 188 188 190
216 215 213 207 203 208 219 256 234 211 230 241 253 227 219 230 232 271 255 225 80 128 126 158 153 133 127 131 145 126 126 130 133 154 150 160 163 173 167 178 179 177 167 154 148 142 147 165 169 176 177 177 183 181 182 183 189 191 201 205 193 192 188
278 330 336 298 279 210 215 209 240 242 237 248 244 267 253 246 230 255 251 79 155 143 148 199 142 155 136 144 153 134 135 143 136 141 136 138 144 159 152 156 159 164 165 176 170 164 168 170 159 168 171 170 182 178 180 179 184 187 192 196 198 198 188
257 303 253 311 280 252 212 214 199 231 242 231 243 243 256 259 255 239 243 231 216 140 160 165 133 168 144 144 147 140 126 125 137 148 136 141 148 179 126 128 166 172 161 160 161 162 173 176 179 179 167 171 181 176 172 169 173 178 181 189 196 199 197
233 207 223 230 232 270 297 307 298 229 217 231 238 238 257 260 245 261 17 349 292 202 170 157 149 158 177 153 145 141 128 125 115 131 155 160 164 169 155 174 169 177 170 167 163 168 173 161 163 170 175 188 198 181 171 173 172 161 159 181 200 208 211
241 210 209 199 227 211 228 244 272 288 278 249 237 237 236 251 260 270 312 295 10 29 27 141 125 116 177 122 123 119 132 136 139 146 144 140 150 149 155 153 169 177 175 177 178 169 163 168 167 179 185 193 201 195 172 179 177 170 163 167 192 218 223
241 221 187 237 216 195 209 240 230 255 249 250 260 290 299 295 275 280 254 266 78 50 75 11 94 130 139 126 152 140 125 152 153 150 140 136 134 113 115 141 155 156 162 166 172 167 172 180 185 203 195 199 203 198 187 186 190 194 195 193 193 199 210
240 240 234 203 219 214 174 187 244 278 226 222 229 245 19 272 267 259 259 202 73 93 148 111 132 140 157 132 124 129 132 141 152 142 142 133 138 140 138 137 122 119 114 114 122 131 148 153 149 151 163 171 182 182 172 191 193 189 201 209 207 208 214
239 209 315 296 297 272 205 132 20 336 54 358 117 53 171 289 346 283 256 94 46 10 304 133 118 165 153 133 121 123 119 107 104 106 102 102 102 101 103 101 99 101 104 109 110 109 106 98 106 118 134 138 139 141 151 120 116 161 202 216 211 215 219
249 252 251 261 258 242 211 89 30 341 15 358 13 48 14 55 284 90 105 132 158 141 194 284 138 162 92 94 100 113 121 107 96 97 100 108 122 119 112 102 102 106 106 105 108 106 107 114 107 92 82 79 74 74 63 73 101 74 67 59 35 30 260
236 222 233 245 237 255 81 96 58 354 15 320 358 14 29 20 21 15 154 160 131 190 146 132 108 54 76 102 108 107 103 116 119 120 117 110 98 101 103 107 106 102 108 111 116 118 110 108 117 121 113 109 109 106 107 100 86 80 72 73 64 44 42
237 244 218 233 231 88 103 69 31 354 265 28 279 75 18 20 350 0 18 13 103 130 138 139 112 116 98 80 68 63 74 98 112 110 101 101 105 98 95 102 101 106 105 107 113 116 124 117 119 111 100 96 94 90 84 83 82 80 78 74 66 68 65
259 231 218 233 78 249 186 71 24 14 15 357 9 126 348 25 11 353 359 356 39 142 125 110 120 125 108 78 61 50 59 69 88 106 107 109 105 105 106 104 100 98 96 72 75 78 75 67 59 82 102 102 99 96 95 90 84 82 80 76 71 68 71
254 253 246 229 203 227 18 17 21 26 23 343 344 264 91 5 6 16 354 347 357 74 42 124 144 128 113 101 67 36 40 66 74 85 105 101 95 98 104 107 106 105 108 107 105 108 98 84 77 77 87 87 87 90 88 88 90 89 87 85 83 77 72
227 234 254 243 243 63 151 4 323 17 35 4 10 269 125 7 28 360 359 341 347 71 76 46 134 180 130 77 45 27 23 33 74 84 76 84 97 102 96 87 83 82 81 86 94 95 97 102 105 113 113 112 110 108 102 96 91 86 82 82 81 82 84
244 259 258 269 6 112 331 2 331 359 344 305 282 265 153 1 6 24 331 346 23 25 86 77 57 67 95 84 72 56 47 44 34 57 55 61 89 95 89 82 80 85 90 90 84 81 82 87 94 86 76 67 54 56 75 91 92 86 78 68 70 77 91
261 264 254 180 131 88 356 356 331 354 342 322 256 275 23 345 345 1 331 338 94 105 126 122 126 129 125 110 108 100 86 66 50 52 76 74 67 61 57 71 83 69 58 61 65 64 57 55 58 63 70 73 71 69 67 63 59 62 65 65 58 56 54
228 232 249 180 94 25 339 347 347 2 289 237 284 16 307 336 337 60 301 357 344 56 54 67 92 112 124 132 110 102 103 101 107 104 85 62 60 69 70 55 59 74 82 82 84 84 80 74 69 71 70 66 66 62 61 62 59 49 44 46 49 45 40
259 248 239 192 172 50 353 318 202 21 333 54 352 328 337 331 13 354 32 55 354 30 70 99 120 121 129 135 127 115 115 114 109 101 98 100 87 62 46 39 42 66 59 56 55 56 54 53 58 68 76 77 74 65 57 47 50 60 53 47 47 51 48
316 309 343 52 50 12 20 23 51 45 41 4 14 340 2 351 12 36 47 15 53 90 125 116 125 129 136 132 130 126 117 111 105 101 93 76 72 79 74 50 24 23 32 45 45 42 41 43 48 52 61 67 65 64 58 42 33 35 51 58 72 66 53
356 37 84 83 90 78 58 61 76 63 46 29 13 23 30 12 27 9 56 39 56 82 98 104 107 112 126 141 138 132 121 113 109 106 108 113 112 96 76 76 74 46 8 8 32 53 50 52 49 47 57 63 59 54 44 42 38 24 31 42 22 69 85
123 88 76 142 104 66 83 74 51 44 42 33 36 41 44 28 53 60 48 46 62 95 92 110 118 120 125 134 143 133 124 120 113 107 98 95 98 98 95 88 86 98 81 43 22 10 28 48 58 62 56 52 56 45 33 22 24 32 25 35 33 22 43
246 139 139 117 113 107 99 91 68 59 41 35 31 52 42 41 37 59 74 71 76 73 95 115 134 130 115 109 109 111 115 124 128 127 122 119 130 133 131 129 137 119 104 93 84 71 24 352 21 57 55 63 68 75 83 130 79 33 12 106 107 55 45
289 65 90 89 84 56 29 41 109 87 64 48 49 51 51 54 51 51 78 124 106 134 114 115 146 158 154 145 140 139 136 139 141 131 141 150 151 146 149 156 159 147 139 131 136 114 116 70 5 18 38 30 34 19 22 34 61 83 36 350 42 60 58
119 157 123 105 103 98 78 73 55 41 44 57 55 55 61 56 50 48 41 29 70 98 101 128 145 151 166 164 170 166 154 144 147 150 152 149 144 146 156 159 161 146 137 134 132 134 131 141 127 112 54 28 21 54 40 50 35 45 53 32 352 356 103
219 71 42 316 211 131 113 76 72 76 77 67 66 61 60 53 51 34 33 35 21 32 92 138 156 151 158 168 177 169 161 171 167 165 163 151 143 140 105 121 141 142 141 141 139 132 144 139 132 128 125 104 56 41 42 43 42 52 48 39 41 32 17
62 94 117 81 69 125 72 90 79 73 67 74 72 65 60 60 57 45 43 46 49 29 17 30 96 138 156 159 175 186 169 174 176 174 169 166 164 166 146 115 51 60 110 129 142 138 137 139 123 117 100 97 85 64 53 47 45 48 34 44 52 73 62
161 173 187 136 232 220 147 124 116 89 58 75 76 67 64 59 48 50 53 46 42 50 39 29 355 360 206 184 191 222 221 180 177 180 179 178 174 172 171 169 159 173 159 161 156 151 140 147 141 144 121 104 96 87 56 52 50 49 36 40 42 37 43
40 79 63 34 95 124 132 127 110 100 73 42 61 56 43 47 51 36 38 41 43 37 43 42 40 10 335 333 247 227 242 236 177 183 184 183 178 178 181 182 173 182 184 175 165 156 167 164 165 173 138 106 63 50 47 38 43 47 44 42 43 44 47